Regional Weather Roundup
Issued by NWS Nashville, TN

Home | Current Version | Previous Version | Text Only | Print | Product List | Glossary On
Versions: 1 2 3 4 5 6 7 8 9 10 11 12 13 14 15 16 17 18 19 20 21 22 23 24 25 26 27
000
ASUS44 KOHX 271510
RWROHX
MIDDLE TENNESSEE HOURLY WEATHER ROUNDUP
NATIONAL WEATHER SERVICE NASHVILLE TN
1000 AM CDT SUN MAY 27 2018

NOTE: "FAIR" INDICATES FEW OR NO CLOUDS BELOW 12,000 FEET WITH
NO SIGNIFICANT WEATHER AND/OR OBSTRUCTIONS TO VISIBILITY.

* THESE REPORTS ARE NOT UNDER NWS QUALITY CONTROL AND MAY NOT
  REPORT WEATHER SUCH AS PRECIPITATION AND FOG.


TNZ005>011-023>034-057-059-062>066-078-080-271600
...NORTHERN MIDDLE TENNESSEE...

CITY           SKY/WX    TMP DP  RH WIND       PRES   REMARKS
CLARKSVILLE      N/A     82  68  62 CALM      29.94S
CROSSVILLE       N/A     76  66  71 E5        30.02S
DICKSON        SUNNY     79  72  78 W8        29.95S
LIVINGSTON     SUNNY     77  68  73 CALM      29.98S
NASHVILLE      PTSUNNY   81  69  67 CALM      29.95S
PORTLAND       SUNNY     81  70  69 CALM      29.95S
ROCKWOOD       CLOUDY    70  68  94 CALM      30.02S
SMYRNA           N/A     81  70  69 CALM      29.96S
SPARTA         MOSUNNY   79  70  73 CALM      29.97S
SPRINGFIELD    SUNNY     82  72  69 CALM      29.94F
WEST NASHVILLE SUNNY     79  72  78 CALM      29.93F
$$
TNZ056-058-060-061-075>077-079-093>097-271600
...SOUTHERN MIDDLE TENNESSEE...

CITY           SKY/WX    TMP DP  RH WIND       PRES   REMARKS
COLUMBIA       SUNNY     81  72  74 CALM      29.94S
FAYETTEVILLE   MOSUNNY   79  70  73 CALM      29.96F
LEWISBURG      SUNNY     79  70  73 CALM      29.95S
MCMINNVILLE    SUNNY     79  68  69 VRB5      29.97S
MURFREESBORO   SUNNY     81  68  65 VRB3      29.95R
PULASKI        SUNNY     79  72  78 CALM      29.95S
SHELBYVILLE    SUNNY     79  70  73 VRB5      29.96S
TULLAHOMA      MOSUNNY   79  68  69 CALM      29.97S
WINCHESTER     SUNNY     79  68  69 VRB3      29.97S
$$


...KEY TO REMARKS...
VSB - VISIBILITY IN MILES
WCI - WIND CHILL INDEX
HX  - HEAT INDEX





USA.gov is the U.S. government's official web portal to all federal, state and local government web resources and services.